Overview Statistics Trail Chart Weather Telemetry Raw packets
 

This is the latest recevied weather packets stored in our database for station/object SV9TNF-52. If no packets are shown the sender has not sent any weather packets the latest 10 day(s).

<< 94 95 96 97 98 99 100 >>
Time Temp. Humidity Pressure Rain* Wind** Luminosity Snow
1787980002 26.67° C 63% 1021.7 hPa 0 mm 4.02 m/s, 90° - -
1787979702 26.67° C 63% 1021.7 hPa 0 mm 2.68 m/s, 88° - -
1787979401 26.67° C 61% 1021 hPa 0 mm 5.36 m/s, 85° - -
1787979101 26.67° C 62% 1021 hPa 0 mm 2.68 m/s, 85° - -
1787978801 26.67° C 61% 1020.7 hPa 0 mm 5.36 m/s, 72° - -
1787978501 26.11° C 61% 1020.7 hPa 0 mm 3.13 m/s, 83° - -
1787978201 26.11° C 62% 1021 hPa 0 mm 1.79 m/s, 62° - -
1787977901 26.11° C 64% 1021 hPa 0 mm 6.26 m/s, 80° - -
1787977601 26.11° C 65% 1021 hPa 0 mm 4.92 m/s, 81° - -
1787977301 26.67° C 64% 1020.7 hPa 0 mm 6.26 m/s, 101° - -
1787977001 26.11° C 65% 1020.7 hPa 0 mm 5.81 m/s, 60° - -
1787976701 26.11° C 65% 1020.7 hPa 0 mm 3.13 m/s, 61° - -
1787976401 26.11° C 66% 1020.7 hPa 0 mm 7.6 m/s, 83° - -
1787976100 26.11° C 67% 1020.7 hPa 0 mm 3.58 m/s, 81° - -
1787975801 26.11° C 67% 1020.3 hPa 0 mm 9.39 m/s, 78° - -
1787975500 26.11° C 67% 1020.3 hPa 0 mm 4.02 m/s, 65° - -
1787975200 26.11° C 67% 1020.3 hPa 0 mm 4.47 m/s, 80° - -
1787974900 26.11° C 68% 1020.3 hPa 0 mm 4.92 m/s, 87° - -
1787974600 26.11° C 68% 1020.3 hPa 0 mm 4.47 m/s, 71° - -
1787974300 26.11° C 68% 1020 hPa 0 mm 4.92 m/s, 55° - -
1787974000 25.56° C 68% 1020 hPa 0 mm 8.05 m/s, 74° - -
1787973700 26.11° C 70% 1020 hPa 0 mm 3.13 m/s, 84° - -
1787973399 26.11° C 70% 1020 hPa 0 mm 6.71 m/s, 105° - -
1787973100 25.56° C 72% 1020 hPa 0 mm 3.58 m/s, 79° - -
1787972799 25.56° C 72% 1020 hPa 0 mm 3.13 m/s, 90° - -

* Rain latest hour (hover to see other rain measurements)
** Current wind speed in m/s (hover to see current wind gust speed)